Olive Branch, MS

12:37 AM CDT on May 23, 2017 (GMT -0500)
Olive Branch

Weather History for KOLV - January, 2013

Change the Weather History Date:

Monday, January 28, 2013

  Actual Average (KMEM) Record (KMEM)
Temperature  
Mean Temperature 63 °F -  
Max Temperature 71 °F 51 °F 77 °F (1975)
Min Temperature 55 °F 33 °F -1 °F (1940)
Degree Days  
Heating Degree Days 2    
Growing Degree Days 13 (Base 50)    
Moisture  
Dew Point 58 °F    
Average Humidity 94    
Maximum Humidity 100    
Minimum Humidity 69    
Precipitation  
Precipitation 0.00 in - - ()
Sea Level Pressure  
Sea Level Pressure 30.12 in    
Wind  
Wind Speed 13 mph (South)    
Max Wind Speed 18 mph    
Max Gust Speed 24 mph    
Visibility 9 miles    
Events      
Averages and records for this station are not official NWS values.
T = Trace of Precipitation, MM = Missing Value Source: NWS Daily Summary

Daily Weather History Graph

Daily Weather History Graph

Search for Another Location

Airport or City:

Trip Planner

Search our weather history database for the weather conditions in past years. The results will help you decide how hot, cold, wet, or windy it might be!

Date:

Astronomy

Jan. 28, 2013 Rise Set
Actual Time 7:00 AM CST 5:24 PM CST
Civil Twilight 6:33 AM CST 5:51 PM CST
Nautical Twilight 6:03 AM CST 6:21 PM CST
Astronomical Twilight 5:33 AM CST 6:51 PM CST
Moon 7:12 PM CST (1/28) 7:31 AM CST (1/28)
Length of Visible Light 11h 17m
Length of Day
10h 23m
Full, 98% of the Moon is Illuminated
Jan 28
Full
Feb 3
Last Quarter
Feb 10
New
Feb 17
First Quarter
Feb 25
Full

Hourly Weather History & Observations

Time (CST) Temp. Dew Point Humidity Pressure Visibility Wind Dir Wind Speed Gust Speed Precip Events Conditions
12:15 AM 57.2 °F 55.4 °F 94% 30.14 in 10.0 mi SSE 11.5 mph - 0.00 in   Mostly Cloudy
12:35 AM 57.2 °F 55.4 °F 94% 30.14 in 10.0 mi South 12.7 mph - 0.00 in   Mostly Cloudy
12:55 AM 57.2 °F 55.4 °F 94% 30.15 in 9.0 mi SSE 11.5 mph 17.3 mph 0.00 in   Mostly Cloudy
1:15 AM 57.2 °F 55.4 °F 94% 30.14 in 9.0 mi South 16.1 mph 20.7 mph 0.00 in   Scattered Clouds
1:35 AM 57.2 °F 55.4 °F 94% 30.14 in 10.0 mi South 18.4 mph 24.2 mph 0.00 in   Mostly Cloudy
1:55 AM 57.2 °F 55.4 °F 94% 30.15 in 8.0 mi South 16.1 mph 21.9 mph 0.00 in   Overcast
2:15 AM 57.2 °F 55.4 °F 94% 30.16 in 10.0 mi South 12.7 mph 23.0 mph 0.00 in   Overcast
2:35 AM 57.2 °F 55.4 °F 94% 30.16 in 9.0 mi South 16.1 mph 19.6 mph 0.00 in   Overcast
2:55 AM 57.2 °F 55.4 °F 94% 30.16 in 10.0 mi South 13.8 mph 21.9 mph 0.00 in   Mostly Cloudy
3:15 AM 57.2 °F 55.4 °F 94% 30.16 in 10.0 mi South 16.1 mph 19.6 mph N/A   Overcast
3:35 AM 57.2 °F 55.4 °F 94% 30.16 in 10.0 mi South 13.8 mph - 0.00 in   Overcast
3:55 AM 57.2 °F 55.4 °F 94% 30.16 in 10.0 mi South 15.0 mph - 0.00 in   Overcast
4:15 AM 57.2 °F 55.4 °F 94% 30.16 in 10.0 mi South 13.8 mph - 0.00 in   Overcast
4:35 AM 57.2 °F 55.4 °F 94% 30.15 in 10.0 mi South 13.8 mph 18.4 mph 0.00 in   Mostly Cloudy
4:55 AM 57.2 °F 55.4 °F 94% 30.16 in 10.0 mi South 13.8 mph - 0.00 in   Overcast
5:15 AM 57.2 °F 55.4 °F 94% 30.15 in 10.0 mi South 13.8 mph - 0.00 in   Overcast
5:35 AM 57.2 °F 55.4 °F 94% 30.15 in 2.5 mi South 16.1 mph - 0.00 in   Overcast
6:50 AM 55.4 °F 55.4 °F 100% 30.17 in 8.0 mi South 11.5 mph - N/A   Overcast
7:50 AM 55.4 °F 55.4 °F 100% 30.18 in 7.0 mi South 13.8 mph - N/A   Overcast
8:50 AM 55.4 °F 55.4 °F 100% 30.18 in 7.0 mi South 11.5 mph 20.7 mph N/A   Overcast
9:50 AM 57.2 °F 57.2 °F 100% 30.19 in 9.0 mi South 11.5 mph 21.9 mph N/A   Overcast
10:50 AM 59.0 °F 59.0 °F 100% 30.18 in 10.0 mi South 15.0 mph 20.7 mph N/A   Overcast
11:50 AM 62.6 °F 62.6 °F 100% 30.15 in 8.0 mi SSW 13.8 mph 23.0 mph N/A   Mostly Cloudy
12:50 PM 66.2 °F 62.6 °F 88% 30.11 in 10.0 mi SSW 11.5 mph 23.0 mph N/A   Mostly Cloudy
1:50 PM 69.8 °F 62.6 °F 78% 30.09 in 10.0 mi SSW 13.8 mph 23.0 mph N/A   Scattered Clouds
3:45 PM 71.6 °F 60.8 °F 69% 30.08 in 10.0 mi SSW 15.0 mph 20.7 mph N/A   Scattered Clouds
4:50 PM 66.2 °F 60.8 °F 83% 30.08 in 10.0 mi South 12.7 mph - N/A   Mostly Cloudy
5:50 PM 66.2 °F 60.8 °F 83% 30.08 in 10.0 mi South 11.5 mph - N/A   Mostly Cloudy
6:55 PM 64.4 °F 60.8 °F 88% 30.08 in 10.0 mi South 12.7 mph - N/A   Mostly Cloudy
7:45 PM 62.6 °F 60.8 °F 94% 30.08 in 10.0 mi SSE 10.4 mph - N/A   Scattered Clouds
8:15 PM 62.6 °F 60.8 °F 94% 30.08 in 10.0 mi South 10.4 mph - 0.00 in   Partly Cloudy
8:35 PM 62.6 °F 60.8 °F 94% 30.08 in 7.0 mi South 13.8 mph 19.6 mph 0.00 in   Scattered Clouds
8:55 PM 62.6 °F 60.8 °F 94% 30.08 in 10.0 mi SSE 11.5 mph 17.3 mph 0.00 in   Scattered Clouds
9:15 PM 62.6 °F 60.8 °F 94% 30.08 in 8.0 mi South 11.5 mph - 0.00 in   Mostly Cloudy
9:35 PM 62.6 °F 60.8 °F 94% 30.08 in 10.0 mi South 13.8 mph 18.4 mph 0.00 in   Overcast
9:55 PM 62.6 °F 60.8 °F 94% 30.08 in 8.0 mi South 11.5 mph 20.7 mph 0.00 in   Overcast
10:15 PM 62.6 °F 60.8 °F 94% 30.08 in 10.0 mi SSE 12.7 mph 18.4 mph 0.00 in   Mostly Cloudy
10:35 PM 60.8 °F 60.8 °F 100% 30.08 in 10.0 mi South 15.0 mph - 0.00 in   Mostly Cloudy
10:55 PM 60.8 °F 60.8 °F 100% 30.08 in 9.0 mi South 12.7 mph - 0.00 in   Overcast
11:15 PM 60.8 °F 60.8 °F 100% 30.08 in 9.0 mi SSE 12.7 mph 18.4 mph 0.00 in   Mostly Cloudy
11:35 PM 60.8 °F 60.8 °F 100% 30.09 in 10.0 mi South 10.4 mph - 0.00 in   Partly Cloudy
11:55 PM 60.8 °F 60.8 °F 100% 30.08 in 10.0 mi SSE 12.7 mph - 0.00 in   Clear